Flag for Chile Weather past 2 weeks in Santiago, Chile

Now
46 °F

Clear.


Feels Like: 46 °F
Forecast: 51 / 77 °F
Wind: 2 mph from North

Location: Pudahuel

Current Time: Apr 21, 2015 at 5:33:42 AM

Latest Report: Apr 21, 2015 at 5:00 AM


Visibility: 4 mi

Pressure: 30.07 "Hg

Humidity: 71%

Dew point: 37 °F

Location of SantiagoLocation

Historic Weather in Santiago — Graph

°F

Santiago temperature yesterday

Maximum temperature yesterday: 68 °F (at 4:00 PM)
Minimum temperature yesterday: 50 °F (at 5:00 AM)
Average temperature yesterday: 58 °F

Past Weeks' High & Low Weather Summary

 TemperatureHumidityPressure
High90 °F (Apr 10, 5:00 PM)100% (Apr 14, 10:00 AM)30.18 "Hg (Apr 14, 10:00 AM)
Low45 °F (Apr 17, 6:00 AM)14% (Apr 10, 5:00 PM)29.83 "Hg (Apr 6, 3:00 PM)
Average62 °F56%29.98 "Hg
* Reported Apr 6 4:00 AM — Apr 21 4:00 AM, Santiago, Weather by CustomWeather, © 2015

Note: Actual official high and low records may vary slightly from our data, if they occured in-between our weather recording intervals... More about our weather records

Advertising

Santiago weather history for previous 24 hours

 ConditionsComfort  
Time TempWeatherWind HumidityBarometerVisibility
4:00 AM
Tue, Apr 21
46 °FHaze.1 mph76%30.07 "Hg3 mi
3:00 AM48 °FPassing clouds.2 mph71%30.07 "HgN/A
2:00 AM50 °FPassing clouds.1 mph67%30.07 "HgN/A
1:00 AM52 °FPassing clouds.3 mph67%30.07 "HgN/A
12:00 AM52 °FPassing clouds.2 mph72%30.07 "HgN/A
11:00 PM
Mon, Apr 20
54 °FPassing clouds.2 mph67%30.07 "HgN/A
10:00 PM57 °FClear.2 mph59%30.07 "Hg10 mi
9:00 PM61 °FPassing clouds.8 mph55%30.04 "HgN/A
8:00 PM61 °FPartly cloudy.8 mph55%30.04 "HgN/A
7:00 PM64 °FPartly cloudy.7 mph46%30.01 "HgN/A
6:00 PM66 °FBroken clouds.10 mph43%30.01 "HgN/A
5:00 PM66 °FBroken clouds.12 mph40%29.98 "HgN/A
4:00 PM68 °FBroken clouds.13 mph38%29.98 "HgN/A
3:00 PM66 °FBroken clouds.5 mph35%29.98 "HgN/A
2:00 PM64 °FBroken clouds.2 mph43%29.98 "HgN/A
1:00 PM63 °FPartly sunny.2 mph45%30.01 "HgN/A
12:00 PM59 °FPartly sunny.No wind51%30.01 "HgN/A
11:00 AM55 °FBroken clouds.3 mph63%30.04 "HgN/A
10:00 AM52 °FOvercast.2 mph67%30.04 "HgN/A
9:00 AM52 °FOvercast.2 mph67%30.04 "HgN/A
8:00 AM52 °FOvercast.No wind67%30.01 "HgN/A
7:00 AM52 °FOvercast.No wind67%30.01 "HgN/A
6:00 AM52 °FOvercast.2 mph67%30.01 "HgN/A
5:00 AM50 °FOvercast.5 mph71%30.01 "HgN/A
Weather by CustomWeather, © 2015

See weather overviewHow to use our weather pages